Year,Month,Day,Hour,Minute,Value (Times are PST for insolation in W/m^2)
2019,01,28,00,00,0.00
2019,01,28,00,01,0.00
2019,01,28,00,02,0.00
2019,01,28,00,03,0.00
2019,01,28,00,04,0.00
2019,01,28,00,05,0.00
2019,01,28,00,06,0.00
2019,01,28,00,07,0.00
2019,01,28,00,08,0.00
2019,01,28,00,09,0.00
2019,01,28,00,10,0.00
2019,01,28,00,11,0.00
2019,01,28,00,12,0.00
2019,01,28,00,13,0.00
2019,01,28,00,14,0.00
2019,01,28,00,15,0.00
2019,01,28,00,16,0.00
2019,01,28,00,17,0.00
2019,01,28,00,18,0.00
2019,01,28,00,19,0.00
2019,01,28,00,20,0.00
2019,01,28,00,21,0.00
2019,01,28,00,22,0.00
2019,01,28,00,23,0.00
2019,01,28,00,24,0.00
2019,01,28,00,25,0.00
2019,01,28,00,26,0.00
2019,01,28,00,27,0.00
2019,01,28,00,28,0.00
2019,01,28,00,29,0.00
2019,01,28,00,30,0.00
2019,01,28,00,31,0.00
2019,01,28,00,32,0.00
2019,01,28,00,33,0.00
2019,01,28,00,34,0.00
2019,01,28,00,35,0.00
2019,01,28,00,36,0.00
2019,01,28,00,37,0.00
2019,01,28,00,38,0.00
2019,01,28,00,39,0.00
2019,01,28,00,40,0.00
2019,01,28,00,41,0.00
2019,01,28,00,42,0.00
2019,01,28,00,43,0.00
2019,01,28,00,44,0.00
2019,01,28,00,45,0.00
2019,01,28,00,46,0.00
2019,01,28,00,47,0.00
2019,01,28,00,48,0.00
2019,01,28,00,49,0.00
2019,01,28,00,50,0.00
2019,01,28,00,51,0.00
2019,01,28,00,52,0.00
2019,01,28,00,53,0.00
2019,01,28,00,54,0.00
2019,01,28,00,55,0.00
2019,01,28,00,56,0.00
2019,01,28,00,57,0.00
2019,01,28,00,58,0.00
2019,01,28,00,59,0.00
2019,01,28,01,00,0.00
2019,01,28,01,01,0.00
2019,01,28,01,02,0.00
2019,01,28,01,03,0.00
2019,01,28,01,04,0.00
2019,01,28,01,05,0.00
2019,01,28,01,06,0.00
2019,01,28,01,07,0.00
2019,01,28,01,08,0.00
2019,01,28,01,09,0.00
2019,01,28,01,10,0.00
2019,01,28,01,11,0.00
2019,01,28,01,12,0.00
2019,01,28,01,13,0.00
2019,01,28,01,14,0.00
2019,01,28,01,15,0.00
2019,01,28,01,16,0.00
2019,01,28,01,17,0.00
2019,01,28,01,18,0.00
2019,01,28,01,19,0.00
2019,01,28,01,20,0.00
2019,01,28,01,21,0.00
2019,01,28,01,22,0.00
2019,01,28,01,23,0.00
2019,01,28,01,24,0.00
2019,01,28,01,25,0.00
2019,01,28,01,26,0.00
2019,01,28,01,27,0.00
2019,01,28,01,28,0.00
2019,01,28,01,29,0.00
2019,01,28,01,30,0.00
2019,01,28,01,31,0.00
2019,01,28,01,32,0.00
2019,01,28,01,33,0.00
2019,01,28,01,34,0.00
2019,01,28,01,35,0.00
2019,01,28,01,36,0.00
2019,01,28,01,37,0.00
2019,01,28,01,38,0.00
2019,01,28,01,39,0.00
2019,01,28,01,40,0.00
2019,01,28,01,41,0.00
2019,01,28,01,42,0.00
2019,01,28,01,43,0.00
2019,01,28,01,44,0.00
2019,01,28,01,45,0.00
2019,01,28,01,46,0.00
2019,01,28,01,47,0.00
2019,01,28,01,48,0.00
2019,01,28,01,49,0.00
2019,01,28,01,50,0.00
2019,01,28,01,51,0.00
2019,01,28,01,52,0.00
2019,01,28,01,53,0.00
2019,01,28,01,54,0.00
2019,01,28,01,55,0.00
2019,01,28,01,56,0.00
2019,01,28,01,57,0.00
2019,01,28,01,58,0.00
2019,01,28,01,59,0.00
2019,01,28,02,00,0.00
2019,01,28,02,01,0.00
2019,01,28,02,02,0.00
2019,01,28,02,03,0.00
2019,01,28,02,04,0.00
2019,01,28,02,05,0.00
2019,01,28,02,06,0.00
2019,01,28,02,07,0.00
2019,01,28,02,08,0.00
2019,01,28,02,09,0.00
2019,01,28,02,10,0.00
2019,01,28,02,11,0.00
2019,01,28,02,12,0.00
2019,01,28,02,13,0.00
2019,01,28,02,14,0.00
2019,01,28,02,15,0.00
2019,01,28,02,16,0.00
2019,01,28,02,17,0.00
2019,01,28,02,18,0.00
2019,01,28,02,19,0.00
2019,01,28,02,20,0.00
2019,01,28,02,21,0.00
2019,01,28,02,22,0.00
2019,01,28,02,23,0.00
2019,01,28,02,24,0.00
2019,01,28,02,25,0.00
2019,01,28,02,26,0.00
2019,01,28,02,27,0.00
2019,01,28,02,28,0.00
2019,01,28,02,29,0.00
2019,01,28,02,30,0.00
2019,01,28,02,31,0.00
2019,01,28,02,32,0.00
2019,01,28,02,33,0.00
2019,01,28,02,34,0.00
2019,01,28,02,35,0.00
2019,01,28,02,36,0.00
2019,01,28,02,37,0.00
2019,01,28,02,38,0.00
2019,01,28,02,39,0.00
2019,01,28,02,40,0.00
2019,01,28,02,41,0.00
2019,01,28,02,42,0.00
2019,01,28,02,43,0.00
2019,01,28,02,44,0.00
2019,01,28,02,45,0.00
2019,01,28,02,46,0.00
2019,01,28,02,47,0.00
2019,01,28,02,48,0.00
2019,01,28,02,49,0.00
2019,01,28,02,50,0.00
2019,01,28,02,51,0.00
2019,01,28,02,52,0.00
2019,01,28,02,53,0.00
2019,01,28,02,54,0.00
2019,01,28,02,55,0.00
2019,01,28,02,56,0.00
2019,01,28,02,57,0.00
2019,01,28,02,58,0.00
2019,01,28,02,59,0.00
2019,01,28,03,00,0.00
2019,01,28,03,01,0.00
2019,01,28,03,02,0.00
2019,01,28,03,03,0.00
2019,01,28,03,04,0.00
2019,01,28,03,05,0.00
2019,01,28,03,06,0.00
2019,01,28,03,07,0.00
2019,01,28,03,08,0.00
2019,01,28,03,09,0.00
2019,01,28,03,10,0.00
2019,01,28,03,11,0.00
2019,01,28,03,12,0.00
2019,01,28,03,13,0.00
2019,01,28,03,14,0.00
2019,01,28,03,15,0.00
2019,01,28,03,16,0.00
2019,01,28,03,17,0.00
2019,01,28,03,18,0.00
2019,01,28,03,19,0.00
2019,01,28,03,20,0.00
2019,01,28,03,21,0.00
2019,01,28,03,22,0.00
2019,01,28,03,23,0.00
2019,01,28,03,24,0.00
2019,01,28,03,25,0.00
2019,01,28,03,26,0.00
2019,01,28,03,27,0.00
2019,01,28,03,28,0.00
2019,01,28,03,29,0.00
2019,01,28,03,30,0.00
2019,01,28,03,31,0.00
2019,01,28,03,32,0.00
2019,01,28,03,33,0.00
2019,01,28,03,34,0.00
2019,01,28,03,35,0.00
2019,01,28,03,36,0.00
2019,01,28,03,37,0.00
2019,01,28,03,38,0.00
2019,01,28,03,39,0.00
2019,01,28,03,40,0.00
2019,01,28,03,41,0.00
2019,01,28,03,42,0.00
2019,01,28,03,43,0.00
2019,01,28,03,44,0.00
2019,01,28,03,45,0.00
2019,01,28,03,46,0.00
2019,01,28,03,47,0.00
2019,01,28,03,48,0.00
2019,01,28,03,49,0.00
2019,01,28,03,50,0.00
2019,01,28,03,51,0.00
2019,01,28,03,52,0.00
2019,01,28,03,53,0.00
2019,01,28,03,54,0.00
2019,01,28,03,55,0.00
2019,01,28,03,56,0.00
2019,01,28,03,57,0.00
2019,01,28,03,58,0.00
2019,01,28,03,59,0.00
2019,01,28,04,00,0.00
2019,01,28,04,01,0.00
2019,01,28,04,02,0.00
2019,01,28,04,03,0.00
2019,01,28,04,04,0.00
2019,01,28,04,05,0.00
2019,01,28,04,06,0.00
2019,01,28,04,07,0.00
2019,01,28,04,08,0.00
2019,01,28,04,09,0.00
2019,01,28,04,10,0.00
2019,01,28,04,11,0.00
2019,01,28,04,12,0.00
2019,01,28,04,13,0.00
2019,01,28,04,14,0.00
2019,01,28,04,15,0.00
2019,01,28,04,16,0.00
2019,01,28,04,17,0.00
2019,01,28,04,18,0.00
2019,01,28,04,19,0.00
2019,01,28,04,20,0.00
2019,01,28,04,21,0.00
2019,01,28,04,22,0.00
2019,01,28,04,23,0.00
2019,01,28,04,24,0.00
2019,01,28,04,25,0.00
2019,01,28,04,26,0.00
2019,01,28,04,27,0.00
2019,01,28,04,28,0.00
2019,01,28,04,29,0.00
2019,01,28,04,30,0.00
2019,01,28,04,31,0.00
2019,01,28,04,32,0.00
2019,01,28,04,33,0.00
2019,01,28,04,34,0.00
2019,01,28,04,35,0.00
2019,01,28,04,36,0.00
2019,01,28,04,37,0.00
2019,01,28,04,38,0.00
2019,01,28,04,39,0.00
2019,01,28,04,40,0.00
2019,01,28,04,41,0.00
2019,01,28,04,42,0.00
2019,01,28,04,43,0.00
2019,01,28,04,44,0.00
2019,01,28,04,45,0.00
2019,01,28,04,46,0.00
2019,01,28,04,47,0.00
2019,01,28,04,48,0.00
2019,01,28,04,49,0.00
2019,01,28,04,50,0.00
2019,01,28,04,51,0.00
2019,01,28,04,52,0.00
2019,01,28,04,53,0.00
2019,01,28,04,54,0.00
2019,01,28,04,55,0.00
2019,01,28,04,56,0.00
2019,01,28,04,57,0.00
2019,01,28,04,58,0.00
2019,01,28,04,59,0.00
2019,01,28,05,00,0.00
2019,01,28,05,01,0.00
2019,01,28,05,02,0.00
2019,01,28,05,03,0.00
2019,01,28,05,04,0.00
2019,01,28,05,05,0.00
2019,01,28,05,06,0.00
2019,01,28,05,07,0.00
2019,01,28,05,08,0.00
2019,01,28,05,09,0.00
2019,01,28,05,10,0.00
2019,01,28,05,11,0.00
2019,01,28,05,12,0.00
2019,01,28,05,13,0.00
2019,01,28,05,14,0.00
2019,01,28,05,15,0.00
2019,01,28,05,16,0.00
2019,01,28,05,17,0.00
2019,01,28,05,18,0.00
2019,01,28,05,19,0.00
2019,01,28,05,20,0.00
2019,01,28,05,21,0.00
2019,01,28,05,22,0.00
2019,01,28,05,23,0.00
2019,01,28,05,24,0.00
2019,01,28,05,25,0.00
2019,01,28,05,26,0.00
2019,01,28,05,27,0.00
2019,01,28,05,28,0.00
2019,01,28,05,29,0.00
2019,01,28,05,30,0.00
2019,01,28,05,31,0.00
2019,01,28,05,32,0.00
2019,01,28,05,33,0.00
2019,01,28,05,34,0.00
2019,01,28,05,35,0.00
2019,01,28,05,36,0.00
2019,01,28,05,37,0.00
2019,01,28,05,38,0.00
2019,01,28,05,39,0.00
2019,01,28,05,40,0.00
2019,01,28,05,41,0.00
2019,01,28,05,42,0.00
2019,01,28,05,43,0.00
2019,01,28,05,44,0.00
2019,01,28,05,45,0.00
2019,01,28,05,46,0.00
2019,01,28,05,47,0.00
2019,01,28,05,48,0.00
2019,01,28,05,49,0.00
2019,01,28,05,50,0.00
2019,01,28,05,51,0.00
2019,01,28,05,52,0.00
2019,01,28,05,53,0.00
2019,01,28,05,54,0.00
2019,01,28,05,55,0.00
2019,01,28,05,56,0.00
2019,01,28,05,57,0.00
2019,01,28,05,58,0.00
2019,01,28,05,59,0.00
2019,01,28,06,00,0.00
2019,01,28,06,01,0.00
2019,01,28,06,02,0.00
2019,01,28,06,03,0.00
2019,01,28,06,04,0.00
2019,01,28,06,05,0.00
2019,01,28,06,06,0.00
2019,01,28,06,07,0.00
2019,01,28,06,08,0.00
2019,01,28,06,09,0.00
2019,01,28,06,10,0.00
2019,01,28,06,11,0.00
2019,01,28,06,12,0.00
2019,01,28,06,13,0.00
2019,01,28,06,14,0.00
2019,01,28,06,15,0.00
2019,01,28,06,16,0.00
2019,01,28,06,17,0.00
2019,01,28,06,18,0.00
2019,01,28,06,19,0.00
2019,01,28,06,20,0.00
2019,01,28,06,21,0.00
2019,01,28,06,22,0.00
2019,01,28,06,23,0.00
2019,01,28,06,24,0.00
2019,01,28,06,25,0.00
2019,01,28,06,26,0.00
2019,01,28,06,27,0.00
2019,01,28,06,28,0.00
2019,01,28,06,29,0.00
2019,01,28,06,30,0.00
2019,01,28,06,31,0.00
2019,01,28,06,32,0.00
2019,01,28,06,33,0.00
2019,01,28,06,34,0.00
2019,01,28,06,35,0.00
2019,01,28,06,36,0.00
2019,01,28,06,37,0.00
2019,01,28,06,38,0.00
2019,01,28,06,39,0.00
2019,01,28,06,40,0.00
2019,01,28,06,41,0.00
2019,01,28,06,42,0.00
2019,01,28,06,43,0.00
2019,01,28,06,44,0.00
2019,01,28,06,45,0.00
2019,01,28,06,46,0.00
2019,01,28,06,47,0.00
2019,01,28,06,48,0.00
2019,01,28,06,49,0.00
2019,01,28,06,50,0.00
2019,01,28,06,51,0.00
2019,01,28,06,52,0.00
2019,01,28,06,53,0.00
2019,01,28,06,54,0.00
2019,01,28,06,55,0.00
2019,01,28,06,56,0.00
2019,01,28,06,57,0.00
2019,01,28,06,58,0.00
2019,01,28,06,59,0.00
2019,01,28,07,00,0.00
2019,01,28,07,01,0.00
2019,01,28,07,02,0.00
2019,01,28,07,03,0.00
2019,01,28,07,04,0.00
2019,01,28,07,05,0.00
2019,01,28,07,06,0.00
2019,01,28,07,07,0.00
2019,01,28,07,08,0.00
2019,01,28,07,09,0.00
2019,01,28,07,10,0.00
2019,01,28,07,11,0.00
2019,01,28,07,12,0.00
2019,01,28,07,13,0.00
2019,01,28,07,14,0.00
2019,01,28,07,15,0.00
2019,01,28,07,16,0.00
2019,01,28,07,17,0.00
2019,01,28,07,18,0.00
2019,01,28,07,19,0.00
2019,01,28,07,20,0.00
2019,01,28,07,21,0.00
2019,01,28,07,22,0.00
2019,01,28,07,23,0.00
2019,01,28,07,24,0.00
2019,01,28,07,25,0.00
2019,01,28,07,26,0.00
2019,01,28,07,27,0.00
2019,01,28,07,28,0.00
2019,01,28,07,29,0.00
2019,01,28,07,30,0.00
2019,01,28,07,31,0.00
2019,01,28,07,32,0.00
2019,01,28,07,33,0.00
2019,01,28,07,34,0.00
2019,01,28,07,35,0.00
2019,01,28,07,36,0.00
2019,01,28,07,37,0.00
2019,01,28,07,38,0.00
2019,01,28,07,39,0.00
2019,01,28,07,40,0.00
2019,01,28,07,41,0.00
2019,01,28,07,42,0.00
2019,01,28,07,43,0.00
2019,01,28,07,44,0.00
2019,01,28,07,45,0.00
2019,01,28,07,46,0.00
2019,01,28,07,47,0.00
2019,01,28,07,48,0.00
2019,01,28,07,49,0.00
2019,01,28,07,50,0.00
2019,01,28,07,51,0.00
2019,01,28,07,52,0.00
2019,01,28,07,53,0.00
2019,01,28,07,54,0.00
2019,01,28,07,55,0.00
2019,01,28,07,56,0.00
2019,01,28,07,57,2.00
2019,01,28,07,58,5.00
2019,01,28,07,59,5.00
2019,01,28,08,00,5.00
2019,01,28,08,01,5.00
2019,01,28,08,02,5.00
2019,01,28,08,03,5.60
2019,01,28,08,04,7.00
2019,01,28,08,05,7.00
2019,01,28,08,06,7.00
2019,01,28,08,07,7.00
2019,01,28,08,08,8.90
2019,01,28,08,09,9.00
2019,01,28,08,10,9.60
2019,01,28,08,11,11.00
2019,01,28,08,12,11.50
2019,01,28,08,13,12.00
2019,01,28,08,14,12.00
2019,01,28,08,15,13.90
2019,01,28,08,16,14.30
2019,01,28,08,17,16.00
2019,01,28,08,18,16.90
2019,01,28,08,19,18.00
2019,01,28,08,20,18.70
2019,01,28,08,21,19.00
2019,01,28,08,22,20.80
2019,01,28,08,23,21.40
2019,01,28,08,24,23.00
2019,01,28,08,25,23.90
2019,01,28,08,26,25.00
2019,01,28,08,27,25.00
2019,01,28,08,28,25.80
2019,01,28,08,29,26.10
2019,01,28,08,30,28.00
2019,01,28,08,31,28.60
2019,01,28,08,32,30.80
2019,01,28,08,33,32.00
2019,01,28,08,34,32.70
2019,01,28,08,35,34.60
2019,01,28,08,36,38.60
2019,01,28,08,37,40.00
2019,01,28,08,38,40.60
2019,01,28,08,39,43.70
2019,01,28,08,40,46.00
2019,01,28,08,41,46.00
2019,01,28,08,42,46.80
2019,01,28,08,43,47.10
2019,01,28,08,44,49.00
2019,01,28,08,45,49.00
2019,01,28,08,46,49.00
2019,01,28,08,47,47.90
2019,01,28,08,48,48.40
2019,01,28,08,49,49.00
2019,01,28,08,50,50.80
2019,01,28,08,51,51.30
2019,01,28,08,52,53.00
2019,01,28,08,53,53.00
2019,01,28,08,54,53.00
2019,01,28,08,55,51.60
2019,01,28,08,56,52.60
2019,01,28,08,57,53.00
2019,01,28,08,58,53.20
2019,01,28,08,59,54.00
2019,01,28,09,00,54.00
2019,01,28,09,01,55.10
2019,01,28,09,02,56.00
2019,01,28,09,03,57.60
2019,01,28,09,04,58.10
2019,01,28,09,05,60.00
2019,01,28,09,06,60.60
2019,01,28,09,07,62.00
2019,01,28,09,08,62.00
2019,01,28,09,09,62.70
2019,01,28,09,10,63.00
2019,01,28,09,11,63.10
2019,01,28,09,12,65.00
2019,01,28,09,13,65.00
2019,01,28,09,14,65.00
2019,01,28,09,15,65.00
2019,01,28,09,16,66.40
2019,01,28,09,17,67.00
2019,01,28,09,18,67.10
2019,01,28,09,19,69.00
2019,01,28,09,20,69.30
2019,01,28,09,21,70.00
2019,01,28,09,22,71.10
2019,01,28,09,23,73.30
2019,01,28,09,24,72.40
2019,01,28,09,25,73.80
2019,01,28,09,26,72.00
2019,01,28,09,27,71.40
2019,01,28,09,28,71.70
2019,01,28,09,29,75.00
2019,01,28,09,30,73.40
2019,01,28,09,31,77.40
2019,01,28,09,32,83.70
2019,01,28,09,33,90.90
2019,01,28,09,34,95.60
2019,01,28,09,35,97.40
2019,01,28,09,36,102.70
2019,01,28,09,37,111.50
2019,01,28,09,38,121.10
2019,01,28,09,39,126.20
2019,01,28,09,40,110.60
2019,01,28,09,41,88.20
2019,01,28,09,42,82.20
2019,01,28,09,43,81.00
2019,01,28,09,44,83.00
2019,01,28,09,45,89.70
2019,01,28,09,46,96.40
2019,01,28,09,47,98.30
2019,01,28,09,48,100.60
2019,01,28,09,49,102.00
2019,01,28,09,50,103.10
2019,01,28,09,51,108.80
2019,01,28,09,52,112.60
2019,01,28,09,53,132.10
2019,01,28,09,54,144.60
2019,01,28,09,55,142.90
2019,01,28,09,56,128.70
2019,01,28,09,57,129.80
2019,01,28,09,58,127.20
2019,01,28,09,59,113.60
2019,01,28,10,00,99.40
2019,01,28,10,01,96.70
2019,01,28,10,02,95.90
2019,01,28,10,03,98.90
2019,01,28,10,04,100.00
2019,01,28,10,05,102.60
2019,01,28,10,06,115.00
2019,01,28,10,07,117.90
2019,01,28,10,08,113.80
2019,01,28,10,09,110.70
2019,01,28,10,10,103.80
2019,01,28,10,11,99.90
2019,01,28,10,12,105.30
2019,01,28,10,13,100.40
2019,01,28,10,14,103.90
2019,01,28,10,15,113.10
2019,01,28,10,16,114.60
2019,01,28,10,17,113.90
2019,01,28,10,18,107.70
2019,01,28,10,19,99.90
2019,01,28,10,20,95.40
2019,01,28,10,21,96.60
2019,01,28,10,22,92.50
2019,01,28,10,23,90.30
2019,01,28,10,24,92.70
2019,01,28,10,25,96.70
2019,01,28,10,26,99.30
2019,01,28,10,27,100.00
2019,01,28,10,28,100.10
2019,01,28,10,29,105.30
2019,01,28,10,30,110.10
2019,01,28,10,31,102.00
2019,01,28,10,32,99.30
2019,01,28,10,33,102.30
2019,01,28,10,34,112.10
2019,01,28,10,35,108.50
2019,01,28,10,36,134.00
2019,01,28,10,37,138.30
2019,01,28,10,38,150.70
2019,01,28,10,39,142.10
2019,01,28,10,40,123.00
2019,01,28,10,41,125.90
2019,01,28,10,42,131.40
2019,01,28,10,43,120.90
2019,01,28,10,44,100.80
2019,01,28,10,45,108.70
2019,01,28,10,46,116.80
2019,01,28,10,47,111.00
2019,01,28,10,48,105.60
2019,01,28,10,49,103.80
2019,01,28,10,50,96.30
2019,01,28,10,51,94.30
2019,01,28,10,52,99.60
2019,01,28,10,53,104.70
2019,01,28,10,54,105.00
2019,01,28,10,55,98.50
2019,01,28,10,56,95.30
2019,01,28,10,57,99.90
2019,01,28,10,58,119.00
2019,01,28,10,59,133.90
2019,01,28,11,00,115.60
2019,01,28,11,01,97.30
2019,01,28,11,02,96.90
2019,01,28,11,03,113.10
2019,01,28,11,04,121.80
2019,01,28,11,05,114.50
2019,01,28,11,06,109.40
2019,01,28,11,07,103.20
2019,01,28,11,08,96.70
2019,01,28,11,09,98.90
2019,01,28,11,10,104.90
2019,01,28,11,11,119.80
2019,01,28,11,12,171.10
2019,01,28,11,13,190.90
2019,01,28,11,14,180.10
2019,01,28,11,15,193.90
2019,01,28,11,16,184.50
2019,01,28,11,17,259.50
2019,01,28,11,18,220.00
2019,01,28,11,19,191.70
2019,01,28,11,20,135.60
2019,01,28,11,21,145.00
2019,01,28,11,22,178.80
2019,01,28,11,23,216.00
2019,01,28,11,24,165.30
2019,01,28,11,25,174.80
2019,01,28,11,26,164.30
2019,01,28,11,27,148.30
2019,01,28,11,28,142.00
2019,01,28,11,29,142.00
2019,01,28,11,30,154.60
2019,01,28,11,31,149.50
2019,01,28,11,32,169.00
2019,01,28,11,33,165.10
2019,01,28,11,34,157.60
2019,01,28,11,35,175.00
2019,01,28,11,36,211.30
2019,01,28,11,37,186.40
2019,01,28,11,38,189.70
2019,01,28,11,39,177.60
2019,01,28,11,40,186.50
2019,01,28,11,41,199.00
2019,01,28,11,42,233.70
2019,01,28,11,43,237.90
2019,01,28,11,44,231.40
2019,01,28,11,45,227.10
2019,01,28,11,46,261.90
2019,01,28,11,47,250.90
2019,01,28,11,48,243.10
2019,01,28,11,49,250.20
2019,01,28,11,50,261.90
2019,01,28,11,51,244.60
2019,01,28,11,52,241.30
2019,01,28,11,53,246.40
2019,01,28,11,54,221.40
2019,01,28,11,55,188.00
2019,01,28,11,56,176.70
2019,01,28,11,57,179.00
2019,01,28,11,58,173.50
2019,01,28,11,59,172.00
2019,01,28,12,00,171.40
2019,01,28,12,01,178.70
2019,01,28,12,02,189.60
2019,01,28,12,03,190.80
2019,01,28,12,04,189.00
2019,01,28,12,05,183.70
2019,01,28,12,06,187.00
2019,01,28,12,07,171.80
2019,01,28,12,08,172.80
2019,01,28,12,09,174.50
2019,01,28,12,10,167.90
2019,01,28,12,11,164.40
2019,01,28,12,12,164.60
2019,01,28,12,13,167.00
2019,01,28,12,14,172.40
2019,01,28,12,15,174.60
2019,01,28,12,16,174.30
2019,01,28,12,17,171.50
2019,01,28,12,18,169.70
2019,01,28,12,19,169.00
2019,01,28,12,20,170.80
2019,01,28,12,21,172.40
2019,01,28,12,22,175.20
2019,01,28,12,23,179.30
2019,01,28,12,24,182.10
2019,01,28,12,25,184.90
2019,01,28,12,26,187.60
2019,01,28,12,27,188.10
2019,01,28,12,28,190.00
2019,01,28,12,29,190.00
2019,01,28,12,30,190.00
2019,01,28,12,31,190.00
2019,01,28,12,32,190.00
2019,01,28,12,33,191.60
2019,01,28,12,34,191.90
2019,01,28,12,35,190.00
2019,01,28,12,36,189.40
2019,01,28,12,37,188.00
2019,01,28,12,38,186.40
2019,01,28,12,39,183.70
2019,01,28,12,40,181.40
2019,01,28,12,41,179.20
2019,01,28,12,42,177.60
2019,01,28,12,43,175.40
2019,01,28,12,44,174.00
2019,01,28,12,45,174.00
2019,01,28,12,46,174.00
2019,01,28,12,47,174.00
2019,01,28,12,48,174.00
2019,01,28,12,49,176.30
2019,01,28,12,50,178.30
2019,01,28,12,51,179.80
2019,01,28,12,52,183.10
2019,01,28,12,53,185.70
2019,01,28,12,54,187.60
2019,01,28,12,55,187.90
2019,01,28,12,56,186.60
2019,01,28,12,57,190.00
2019,01,28,12,58,188.30
2019,01,28,12,59,184.30
2019,01,28,13,00,181.70
2019,01,28,13,01,179.40
2019,01,28,13,02,178.10
2019,01,28,13,03,177.60
2019,01,28,13,04,175.40
2019,01,28,13,05,174.00
2019,01,28,13,06,173.00
2019,01,28,13,07,171.40
2019,01,28,13,08,167.90
2019,01,28,13,09,165.10
2019,01,28,13,10,162.90
2019,01,28,13,11,161.40
2019,01,28,13,12,159.10
2019,01,28,13,13,157.00
2019,01,28,13,14,156.00
2019,01,28,13,15,156.00
2019,01,28,13,16,156.00
2019,01,28,13,17,156.30
2019,01,28,13,18,158.00
2019,01,28,13,19,158.00
2019,01,28,13,20,159.10
2019,01,28,13,21,161.30
2019,01,28,13,22,162.80
2019,01,28,13,23,164.90
2019,01,28,13,24,167.30
2019,01,28,13,25,169.90
2019,01,28,13,26,172.80
2019,01,28,13,27,175.10
2019,01,28,13,28,176.00
2019,01,28,13,29,177.60
2019,01,28,13,30,179.00
2019,01,28,13,31,180.50
2019,01,28,13,32,177.00
2019,01,28,13,33,174.00
2019,01,28,13,34,174.00
2019,01,28,13,35,174.00
2019,01,28,13,36,175.60
2019,01,28,13,37,175.90
2019,01,28,13,38,174.00
2019,01,28,13,39,174.60
2019,01,28,13,40,175.20
2019,01,28,13,41,174.00
2019,01,28,13,42,174.00
2019,01,28,13,43,174.00
2019,01,28,13,44,175.70
2019,01,28,13,45,173.60
2019,01,28,13,46,172.00
2019,01,28,13,47,171.60
2019,01,28,13,48,171.00
2019,01,28,13,49,169.70
2019,01,28,13,50,169.00
2019,01,28,13,51,169.00
2019,01,28,13,52,169.00
2019,01,28,13,53,169.60
2019,01,28,13,54,171.40
2019,01,28,13,55,174.20
2019,01,28,13,56,177.30
2019,01,28,13,57,178.80
2019,01,28,13,58,182.60
2019,01,28,13,59,183.40
2019,01,28,14,00,185.30
2019,01,28,14,01,186.90
2019,01,28,14,02,187.00
2019,01,28,14,03,185.40
2019,01,28,14,04,183.40
2019,01,28,14,05,181.10
2019,01,28,14,06,179.40
2019,01,28,14,07,180.10
2019,01,28,14,08,177.20
2019,01,28,14,09,175.00
2019,01,28,14,10,172.70
2019,01,28,14,11,172.00
2019,01,28,14,12,171.10
2019,01,28,14,13,170.70
2019,01,28,14,14,168.40
2019,01,28,14,15,167.00
2019,01,28,14,16,167.00
2019,01,28,14,17,163.70
2019,01,28,14,18,160.40
2019,01,28,14,19,155.40
2019,01,28,14,20,150.30
2019,01,28,14,21,144.70
2019,01,28,14,22,138.60
2019,01,28,14,23,133.40
2019,01,28,14,24,128.70
2019,01,28,14,25,123.90
2019,01,28,14,26,118.40
2019,01,28,14,27,113.30
2019,01,28,14,28,107.70
2019,01,28,14,29,101.60
2019,01,28,14,30,95.30
2019,01,28,14,31,89.70
2019,01,28,14,32,84.90
2019,01,28,14,33,81.10
2019,01,28,14,34,76.80
2019,01,28,14,35,76.00
2019,01,28,14,36,76.00
2019,01,28,14,37,76.00
2019,01,28,14,38,76.60
2019,01,28,14,39,78.60
2019,01,28,14,40,82.60
2019,01,28,14,41,86.30
2019,01,28,14,42,88.80
2019,01,28,14,43,91.80
2019,01,28,14,44,94.10
2019,01,28,14,45,95.00
2019,01,28,14,46,96.60
2019,01,28,14,47,97.00
2019,01,28,14,48,97.00
2019,01,28,14,49,97.00
2019,01,28,14,50,97.00
2019,01,28,14,51,94.90
2019,01,28,14,52,91.70
2019,01,28,14,53,87.10
2019,01,28,14,54,79.50
2019,01,28,14,55,75.40
2019,01,28,14,56,71.10
2019,01,28,14,57,67.40
2019,01,28,14,58,60.20
2019,01,28,14,59,54.00
2019,01,28,15,00,51.40
2019,01,28,15,01,49.10
2019,01,28,15,02,47.00
2019,01,28,15,03,46.70
2019,01,28,15,04,46.00
2019,01,28,15,05,46.00
2019,01,28,15,06,46.00
2019,01,28,15,07,46.00
2019,01,28,15,08,46.00
2019,01,28,15,09,46.00
2019,01,28,15,10,46.00
2019,01,28,15,11,46.00
2019,01,28,15,12,46.00
2019,01,28,15,13,46.00
2019,01,28,15,14,46.00
2019,01,28,15,15,46.00
2019,01,28,15,16,46.00
2019,01,28,15,17,46.00
2019,01,28,15,18,46.00
2019,01,28,15,19,46.00
2019,01,28,15,20,46.00
2019,01,28,15,21,44.40
2019,01,28,15,22,43.90
2019,01,28,15,23,42.00
2019,01,28,15,24,42.00
2019,01,28,15,25,42.00
2019,01,28,15,26,42.00
2019,01,28,15,27,42.00
2019,01,28,15,28,42.00
2019,01,28,15,29,41.90
2019,01,28,15,30,40.00
2019,01,28,15,31,40.00
2019,01,28,15,32,39.60
2019,01,28,15,33,39.00
2019,01,28,15,34,39.00
2019,01,28,15,35,39.00
2019,01,28,15,36,37.20
2019,01,28,15,37,36.70
2019,01,28,15,38,35.00
2019,01,28,15,39,35.00
2019,01,28,15,40,35.00
2019,01,28,15,41,35.00
2019,01,28,15,42,35.00
2019,01,28,15,43,33.10
2019,01,28,15,44,33.00
2019,01,28,15,45,33.00
2019,01,28,15,46,33.00
2019,01,28,15,47,33.00
2019,01,28,15,48,33.00
2019,01,28,15,49,33.00
2019,01,28,15,50,33.00
2019,01,28,15,51,33.00
2019,01,28,15,52,33.00
2019,01,28,15,53,32.60
2019,01,28,15,54,32.00
2019,01,28,15,55,32.00
2019,01,28,15,56,32.00
2019,01,28,15,57,32.00
2019,01,28,15,58,31.70
2019,01,28,15,59,30.00
2019,01,28,16,00,30.00
2019,01,28,16,01,30.00
2019,01,28,16,02,28.70
2019,01,28,16,03,28.00
2019,01,28,16,04,28.00
2019,01,28,16,05,28.00
2019,01,28,16,06,27.40
2019,01,28,16,07,26.00
2019,01,28,16,08,26.00
2019,01,28,16,09,26.00
2019,01,28,16,10,26.00
2019,01,28,16,11,25.10
2019,01,28,16,12,25.00
2019,01,28,16,13,25.00
2019,01,28,16,14,25.00
2019,01,28,16,15,25.00
2019,01,28,16,16,25.00
2019,01,28,16,17,25.00
2019,01,28,16,18,25.00
2019,01,28,16,19,25.00
2019,01,28,16,20,25.00
2019,01,28,16,21,25.00
2019,01,28,16,22,23.90
2019,01,28,16,23,23.00
2019,01,28,16,24,23.00
2019,01,28,16,25,23.00
2019,01,28,16,26,23.00
2019,01,28,16,27,23.00
2019,01,28,16,28,23.00
2019,01,28,16,29,21.90
2019,01,28,16,30,21.00
2019,01,28,16,31,21.00
2019,01,28,16,32,21.00
2019,01,28,16,33,21.00
2019,01,28,16,34,20.40
2019,01,28,16,35,19.00
2019,01,28,16,36,19.00
2019,01,28,16,37,19.00
2019,01,28,16,38,19.00
2019,01,28,16,39,18.10
2019,01,28,16,40,17.70
2019,01,28,16,41,16.00
2019,01,28,16,42,16.00
2019,01,28,16,43,14.90
2019,01,28,16,44,14.00
2019,01,28,16,45,14.00
2019,01,28,16,46,12.20
2019,01,28,16,47,11.90
2019,01,28,16,48,11.00
2019,01,28,16,49,10.10
2019,01,28,16,50,9.00
2019,01,28,16,51,7.70
2019,01,28,16,52,7.00
2019,01,28,16,53,7.00
2019,01,28,16,54,5.00
2019,01,28,16,55,5.00
2019,01,28,16,56,3.00
2019,01,28,16,57,0.00
2019,01,28,16,58,0.00
2019,01,28,16,59,0.00
2019,01,28,17,00,0.00
2019,01,28,17,01,0.00
2019,01,28,17,02,0.00
2019,01,28,17,03,0.00
2019,01,28,17,04,0.00
2019,01,28,17,05,0.00
2019,01,28,17,06,0.00
2019,01,28,17,07,0.00
2019,01,28,17,08,0.00
2019,01,28,17,09,0.00
2019,01,28,17,10,0.00
2019,01,28,17,11,0.00
2019,01,28,17,12,0.00
2019,01,28,17,13,0.00
2019,01,28,17,14,0.00
2019,01,28,17,15,0.00
2019,01,28,17,16,0.00
2019,01,28,17,17,0.00
2019,01,28,17,18,0.00
2019,01,28,17,19,0.00
2019,01,28,17,20,0.00
2019,01,28,17,21,0.00
2019,01,28,17,22,0.00
2019,01,28,17,23,0.00
2019,01,28,17,24,0.00
2019,01,28,17,25,0.00
2019,01,28,17,26,0.00
2019,01,28,17,27,0.00
2019,01,28,17,28,0.00
2019,01,28,17,29,0.00
2019,01,28,17,30,0.00
2019,01,28,17,31,0.00